Hourly Weather Bereznegovatoe

Today, 8 August, Saturday

Time Temperature Precipitation Wind Pressure Humidity
00:00 +27°C° 0 mm 5 mps 755 mmHg 44%
01:00 +26°C° 0 mm 5 mps 756 mmHg 47%
02:00 +26°C° 0 mm 5 mps 756 mmHg 49%
03:00 +25°C° 0 mm 5 mps 756 mmHg 54%
04:00 +25°C° 0 mm 5 mps 755 mmHg 59%
05:00 +23°C° 0 mm 5 mps 755 mmHg 64%
06:00 +26°C° 0 mm 5 mps 756 mmHg 60%
07:00 +28°C° 0 mm 6 mps 756 mmHg 55%
08:00 +30°C° 0 mm 6 mps 756 mmHg 50%
09:00 +32°C° 0 mm 6 mps 756 mmHg 47%
10:00 +33°C° 0 mm 6 mps 755 mmHg 43%
11:00 +34°C° 0 mm 6 mps 755 mmHg 40%
12:00 +35°C° 0 mm 6 mps 755 mmHg 37%
13:00 +35°C° 0 mm 6 mps 755 mmHg 35%
14:00 +35°C° 0 mm 6 mps 754 mmHg 32%
15:00 +35°C° 0 mm 6 mps 754 mmHg 33%
16:00 +34°C° 0 mm 7 mps 754 mmHg 34%
17:00 +34°C° 0 mm 7 mps 753 mmHg 35%
18:00 +32°C° 0 mm 6 mps 754 mmHg 38%
19:00 +29°C° 0 mm 6 mps 754 mmHg 42%
20:00 +28°C° 0 mm 5 mps 754 mmHg 45%
21:00 +27°C° 0 mm 5 mps 754 mmHg 47%
22:00 +26°C° 0 mm 5 mps 754 mmHg 48%
23:00 +25°C° 0 mm 5 mps 754 mmHg 50%

Tomorrow, 9 August, Sunday

Time Temperature Precipitation Wind Pressure Humidity
00:00 +25°C° 0 mm 5 mps 754 mmHg 52%
01:00 +23°C° 0 mm 5 mps 754 mmHg 55%
02:00 +22°C° 0 mm 4 mps 754 mmHg 57%
03:00 +21°C° 0 mm 5 mps 754 mmHg 60%
04:00 +21°C° 0 mm 5 mps 754 mmHg 62%
05:00 +20°C° 0 mm 5 mps 754 mmHg 65%
06:00 +22°C° 0 mm 5 mps 754 mmHg 59%
07:00 +24°C° 0 mm 6 mps 754 mmHg 53%
08:00 +26°C° 0 mm 6 mps 754 mmHg 47%
09:00 +28°C° 0 mm 6 mps 754 mmHg 43%
10:00 +29°C° 0 mm 6 mps 754 mmHg 38%
11:00 +32°C° 0 mm 6 mps 754 mmHg 34%
12:00 +32°C° 0 mm 6 mps 754 mmHg 31%
13:00 +33°C° 0 mm 6 mps 753 mmHg 29%
14:00 +34°C° 0 mm 6 mps 753 mmHg 27%
15:00 +33°C° 0 mm 6 mps 753 mmHg 28%
16:00 +33°C° 0 mm 6 mps 753 mmHg 29%
17:00 +32°C° 0 mm 5 mps 752 mmHg 29%
18:00 +30°C° 0 mm 5 mps 752 mmHg 33%
19:00 +28°C° 0 mm 4 mps 753 mmHg 37%
20:00 +27°C° 0 mm 4 mps 753 mmHg 41%
21:00 +26°C° 0 mm 4 mps 753 mmHg 44%
22:00 +23°C° 0 mm 4 mps 753 mmHg 48%
23:00 +22°C° 0 mm 4 mps 754 mmHg 51%

Day after tomorrow, 10 August, Monday

Time Temperature Precipitation Wind Pressure Humidity
00:00 +22°C° 0 mm 3 mps 753 mmHg 53%
01:00 +21°C° 0 mm 3 mps 753 mmHg 54%
02:00 +21°C° 0 mm 3 mps 753 mmHg 55%
03:00 +21°C° 0 mm 3 mps 753 mmHg 57%
04:00 +20°C° 0 mm 3 mps 753 mmHg 58%
05:00 +20°C° 0 mm 3 mps 753 mmHg 60%
06:00 +22°C° 0 mm 3 mps 753 mmHg 55%
07:00 +25°C° 0 mm 4 mps 753 mmHg 51%
08:00 +27°C° 0 mm 4 mps 753 mmHg 46%
09:00 +28°C° 0 mm 4 mps 753 mmHg 42%
10:00 +30°C° 0 mm 4 mps 753 mmHg 38%
11:00 +32°C° 0 mm 4 mps 753 mmHg 34%
12:00 +32°C° 0 mm 4 mps 753 mmHg 34%
13:00 +30°C° 0 mm 3 mps 753 mmHg 34%
14:00 +30°C° 0 mm 3 mps 753 mmHg 35%
15:00 +30°C° 0 mm 3 mps 753 mmHg 35%
16:00 +30°C° 0 mm 3 mps 753 mmHg 35%
17:00 +30°C° 0 mm 3 mps 753 mmHg 35%
18:00 +29°C° 0 mm 3 mps 753 mmHg 38%
19:00 +28°C° 0 mm 3 mps 753 mmHg 42%
20:00 +27°C° 0 mm 3 mps 753 mmHg 45%
21:00 +26°C° 0 mm 3 mps 753 mmHg 48%
22:00 +25°C° 0 mm 3 mps 753 mmHg 50%
23:00 +25°C° 0 mm 3 mps 753 mmHg 52%

11 August, Tuesday

Time Temperature Precipitation Wind Pressure Humidity
00:00 +24°C° 0 mm 2 mps 753 mmHg 52%
01:00 +24°C° 0 mm 2 mps 753 mmHg 52%
02:00 +24°C° 0 mm 2 mps 753 mmHg 52%
03:00 +23°C° 0 mm 2 mps 753 mmHg 54%
04:00 +23°C° 0 mm 2 mps 753 mmHg 56%
05:00 +21°C° 0 mm 2 mps 753 mmHg 58%
06:00 +24°C° 0 mm 2 mps 753 mmHg 53%
07:00 +26°C° 0 mm 2 mps 753 mmHg 47%
08:00 +28°C° 0 mm 2 mps 753 mmHg 42%
09:00 +29°C° 0 mm 2 mps 753 mmHg 38%
10:00 +30°C° 0 mm 2 mps 754 mmHg 35%
11:00 +31°C° 0 mm 3 mps 754 mmHg 31%
12:00 +31°C° 0 mm 2 mps 753 mmHg 31%
13:00 +31°C° 0 mm 2 mps 753 mmHg 31%
14:00 +32°C° 0 mm 2 mps 753 mmHg 30%
15:00 +31°C° 0 mm 1 mps 753 mmHg 31%
16:00 +31°C° 0 mm 1 mps 753 mmHg 32%
17:00 +31°C° 0 mm 1 mps 753 mmHg 32%
18:00 +30°C° 0 mm 1 mps 753 mmHg 36%
19:00 +28°C° 0 mm 1 mps 753 mmHg 39%
20:00 +27°C° 0 mm 1 mps 753 mmHg 43%
21:00 +26°C° 0 mm 2 mps 753 mmHg 47%
22:00 +25°C° 0 mm 2 mps 753 mmHg 50%
23:00 +24°C° 0 mm 2 mps 753 mmHg 54%

12 August, Wednesday

Time Temperature Precipitation Wind Pressure Humidity
00:00 +24°C° 0 mm 2 mps 752 mmHg 55%
01:00 +23°C° 0 mm 2 mps 752 mmHg 57%
02:00 +23°C° 0 mm 2 mps 752 mmHg 58%
03:00 +23°C° 0 mm 2 mps 752 mmHg 60%
04:00 +21°C° 0 mm 2 mps 752 mmHg 61%
05:00 +21°C° 0 mm 2 mps 752 mmHg 63%
06:00 +24°C° 0 mm 2 mps 752 mmHg 57%
07:00 +26°C° 0 mm 2 mps 752 mmHg 51%
08:00 +28°C° 0 mm 2 mps 752 mmHg 45%
09:00 +30°C° 0 mm 2 mps 752 mmHg 41%
10:00 +31°C° 0 mm 3 mps 751 mmHg 37%
11:00 +33°C° 0 mm 3 mps 751 mmHg 33%
12:00 +33°C° 0 mm 3 mps 751 mmHg 34%
13:00 +33°C° 0 mm 4 mps 751 mmHg 35%
14:00 +33°C° 0 mm 4 mps 751 mmHg 35%
15:00 +30°C° 0.5 mm 4 mps 751 mmHg 41%
16:00 +29°C° 0.5 mm 4 mps 751 mmHg 46%
17:00 +28°C° 0.5 mm 4 mps 750 mmHg 52%
18:00 +27°C° 0.6 mm 4 mps 751 mmHg 55%
19:00 +25°C° 0.6 mm 4 mps 751 mmHg 57%
20:00 +23°C° 0.6 mm 5 mps 752 mmHg 60%
21:00 +22°C° 0.1 mm 5 mps 752 mmHg 61%
22:00 +21°C° 0.1 mm 6 mps 752 mmHg 62%
23:00 +20°C° 0.1 mm 6 mps 753 mmHg 62%

13 August, Thursday

Time Temperature Precipitation Wind Pressure Humidity
00:00 +19°C° 0 mm 6 mps 753 mmHg 65%
01:00 +17°C° 0 mm 5 mps 753 mmHg 67%
02:00 +16°C° 0 mm 5 mps 753 mmHg 69%
03:00 +15°C° 0 mm 5 mps 753 mmHg 72%
04:00 +15°C° 0 mm 5 mps 753 mmHg 74%
05:00 +14°C° 0 mm 5 mps 754 mmHg 76%
06:00 +16°C° 0 mm 5 mps 754 mmHg 70%
07:00 +17°C° 0 mm 6 mps 754 mmHg 64%
08:00 +19°C° 0 mm 6 mps 754 mmHg 58%
09:00 +21°C° 0 mm 6 mps 754 mmHg 52%
10:00 +22°C° 0 mm 6 mps 754 mmHg 45%
11:00 +24°C° 0 mm 6 mps 754 mmHg 39%
12:00 +24°C° 0 mm 6 mps 754 mmHg 37%
13:00 +26°C° 0 mm 7 mps 754 mmHg 35%
14:00 +26°C° 0 mm 7 mps 754 mmHg 33%
15:00 +26°C° 0 mm 7 mps 754 mmHg 34%
16:00 +26°C° 0 mm 7 mps 754 mmHg 35%
17:00 +24°C° 0 mm 7 mps 754 mmHg 36%
18:00 +23°C° 0 mm 6 mps 755 mmHg 40%
19:00 +21°C° 0 mm 5 mps 755 mmHg 44%
20:00 +20°C° 0 mm 4 mps 755 mmHg 48%
21:00 +19°C° 0 mm 4 mps 756 mmHg 51%
22:00 +18°C° 0 mm 3 mps 756 mmHg 55%
23:00 +17°C° 0 mm 3 mps 756 mmHg 59%
Show more